Tracking 19908 objects as of 19-Oct-2019
HD Live streaming from Space Station
objects crossing your sky now

IRIDIUM 33 DEB

Track IRIDIUM 33 DEB now!
10-day predictions


NORAD ID: 34102
Int'l Code: 1997-051DM
Perigee: 732.1 km
Apogee: 892.7 km
Inclination: 86.4 °
Period: 101.0 minutes
Semi major axis: 7183 km
RCS: 0.053 m2 (small)
Launch date: September 14, 1997
Source: United States (US)
Launch site: TYURATAM MISSILE AND SPACE COMPLEX (TTMTR)

Note: This is SATELLITE DEBRIS
aabbcc
Your satellite tracking list
Your tracking list is empty




NASA's NSSDC Master Catalog

Two Line Element Set (TLE):
1 34102U 97051DM  19290.57144723 +.00001437 +00000-0 +55716-3 0  9998
2 34102 086.3764 339.6362 0111797 012.2267 144.6147 14.25965251550764
Source of the keplerian elements: AFSPC